Regional Weather Roundup
Issued by NWS

Home | Current Version | Previous Version | Graphics & Text | Print | Product List | Glossary Off
Versions: 1 2 3 4 5 6 7 8 9 10 11 12 13 14 15 16 17 18 19 20 21 22 23 24 25 26 27 28 29 30 31 32 33 34 35 36 37 38 39 40 41 42 43 44 45 46 47 48 49 50

000
ASUS43 KDMX 291501
RWRIA

WEATHER ROUNDUP FOR IOWA
NATIONAL WEATHER SERVICE DES MOINES IA
1000 AM CDT MON MAY 29 2017

NOTE: "FAIR" INDICATES FEW OR NO CLOUDS BELOW 12,000 FEET WITH NO
SIGNIFICANT WEATHER AND/OR OBSTRUCTIONS TO VISIBILITY.

* - THESE STATIONS ARE NOT NWS STATIONS...THUS NOT UNDER NWS
QUALITY CONTROL.  THEY ALSO DO NOT REPORT WEATHER SUCH
AS PRECIPITATION OR FOG.

IAZ001>003-012>014-020>022-031>034-043>046-291600-
   NORTHWEST IOWA

CITY           SKY/WX    TMP DP  RH WIND       PRES   REMARKS
CARROLL *      SUNNY     68  45  42 NW17G30   29.95S
CHEROKEE *     SUNNY     62  47  57 NW12G25   29.96S
DENISON *      SUNNY     64  46  52 NW12G24   29.99R
LE MARS *      SUNNY     63  45  51 NW17G26   29.99R
ORANGE CITY *  SUNNY     61  48  63 NW21      29.97R
SHELDON *      SUNNY     63  43  48 W20G26    29.94R
SIOUX CITY     SUNNY     64  48  56 NW20G25   29.99S
SPENCER        SUNNY     62  48  60 W21G28    29.93R
STORM LAKE *   SUNNY     63  43  48 NW21G30   29.96R
$$

IAZ055>058-069>071-079>083-090>094-291600-
   SOUTHWEST IOWA

CITY           SKY/WX    TMP DP  RH WIND       PRES   REMARKS
ATLANTIC *     SUNNY     68  45  42 W10       29.97R
AUDUBON *      SUNNY     66  48  52 NW5       29.98R
CLARINDA *     SUNNY     70  46  43 VRB5G12   30.00R
COUNCIL BLFS * SUNNY     68  48  49 N8        29.99R
CRESTON *      SUNNY     68  45  42 NW12      29.97S
HARLAN  *      SUNNY     66  46  48 W10G17    30.01R
LAMONI         SUNNY     69  51  52 N9        29.96R
RED OAK *      SUNNY     70  48  46 W6        29.98R
SHENANDOAH *   SUNNY     70  50  49 NW7       29.99R
$$

IAZ047>049-059>061-072>074-084-291600-
   CENTRAL IOWA

CITY           SKY/WX    TMP DP  RH WIND       PRES   REMARKS
AMES           SUNNY     66  45  46 NW16      29.92R
ANKENY *       SUNNY     66  46  48 NW13G21   29.94S
BOONE *        SUNNY     66 N/A N/A NW16G23   29.92R
CHARITON *     SUNNY     68  48  49 NW14      29.94S
DES MOINES     MOSUNNY   70  43  37 NW13      29.93R
GRINNELL*      SUNNY     66  46  49 NW16G22   29.92F
KNOXVILLE *    SUNNY     66  45  45 NW14      29.92S
MARSHALLTOWN   SUNNY     66  48  52 W16       29.90S
NEWTON *       SUNNY     66  45  45 NW15      29.91S
PELLA *        SUNNY     69  44  41 NW9G16    29.94R
PERRY *          N/A     67  42  39 NW14G24   29.95R
$$

IAZ004>006-015-016-023>025-035-036-291600-
   NORTH CENTRAL IOWA

CITY           SKY/WX    TMP DP  RH WIND       PRES   REMARKS
ALGONA *       MOSUNNY   63  45  51 NW16G23   29.91S
CLARION *      MOSUNNY   64  46  52 NW15G28   29.90S
ESTHERVILLE    PTSUNNY   60  47  61 NW18      29.90S
FORT DODGE *   SUNNY     64  46  52 NW10G25   29.93S
MASON CITY     MOSUNNY   61  45  55 NW16      29.90R
FOREST CITY *  PTSUNNY   63  37  39 W12G18    29.89R
WEBSTER CITY * SUNNY     66  43  42 NW25G32   29.89S
IOWA FALLS *     N/A     65  45  48 W21       29.91S
$$

IAZ007>011-017>019-026>030-037>042-050>054-066-291600-
   NORTHEAST IOWA

CITY           SKY/WX    TMP DP  RH WIND       PRES   REMARKS
CEDAR RAPIDS   SUNNY     66  48  52 NW21      29.88S
CHARLES CITY * PTSUNNY   63  43  48 NW22G28   29.88S
CLINTON *      SUNNY     65  51  60 W15       29.86F
DECORAH *      CLOUDY    59  45  58 W13G25    29.83S
DUBUQUE        SUNNY     63  48  58 W15G25    29.85S
MONTICELLO *   SUNNY     64  48  55 W16G23    29.86S
OELWEIN *      SUNNY     63  46  55 NW25G31   29.87S
WATERLOO       MOSUNNY   65  46  50 NW15G26   29.88R
$$

IAZ064-065-067-068-078-291600-
   EAST CENTRAL IOWA

CITY           SKY/WX    TMP DP  RH WIND       PRES   REMARKS
DAVENPORT      SUNNY     66  47  50 NW14      29.87S
IOWA CITY      MOSUNNY   67  48  50 NW14G23   29.91R
MT. PLEASANT * SUNNY     67  46  45 NW9       29.91R
MUSCATINE *    SUNNY     68  48  49 NW15      29.89R
QUAD CITIES    CLOUDY    69  48  47 W10       29.87S
$$

IAZ062-063-075>077-085>089-095>099-291600-
   SOUTHEAST IOWA

CITY           SKY/WX    TMP DP  RH WIND       PRES   REMARKS
BURLINGTON     CLOUDY    68  49  50 NW7       29.90R
FAIRFIELD *    SUNNY     68  46  45 NW13      29.91R
FORT MADISON * CLOUDY    70  48  46 W10       29.92R
KEOKUK *       CLOUDY    66  52  59 MISG      29.91R
OSKALOOSA *      N/A     68  44  41 NW15G21   29.92S
OTTUMWA        MOSUNNY   68  48  48 NW12      29.92R
WASHINGTON *   SUNNY     68  48  49 NW14G21   29.91S
$$

ABBREVIATIONS USED IN REMARKS
   TC - TEMPERATURES IN CELSIUS
  WCI - WIND CHILL INDEX
   HX - HEAT INDEX
  VSB - VISIBILITY
$$





USA.gov is the U.S. government's official web portal to all federal, state and local government web resources and services.